Torna al catalogo

COSMOS 2064

AttivoMilitareLEO
NORAD 20549·PAYLOAD·🇷🇺 Russia

Lanciato Apr 6, 1990 da Plesetsk Cosmodrome

Loading…

Prossimi Passaggi (prossime 24 ore)

TLE

AggiornatoSource: Space-Track

Epoca: Sep 14, 2026, 17:00 UTC

1 20549U 90029A   26257.70858867 -.00000026  00000-0 -66918-4 0  9995
2 20549  73.9786 245.3283 0017720 243.0655 290.4783 12.47226940659269

Traccia COSMOS 2064 in tempo reale con AllMySat

Download on the App Store